[[{"header":{"parameterUnit":"m.s-1","parameterCategory":1,"la1":30.2991,"la2":30.254,"lo1":-89.0895,"lo2":-89.0444,"dy":0.0017,"dx":0.0017,"nx":28,"ny":28,"refTime":"2024-02-11T09:00:00:Z","depth":0,"parameterNumber":2,"parameterNumberName":"U-component_of_WINDS"},"data":[0,0,0,0,0,0,0,0,0,0,0,0,0,0,0,0,0,0,0,0,0,0,0,0,0,0,0,0,0,0,0,0,0,0,0,0,0,0,0,0,0,0,0,0,0,0,0,0,0,0,0,0,0,0,0,0,0,0,0.5388,0.5389,0,0.5451,0.5452,0.5453,0.5428,0.5426,0.5425,0.5423,0.5491,0.5494,0.5497,0,0,0,0,0,0,0,0,0,0,0,0,0,0.5249,0.5252,0.5388,0.5389,0.539,0.5451,0.5452,0.5453,0.5428,0.5426,0.5424,0.5423,0.549,0.5494,0.5498,0,0,0,0,0,0,0,0,0,0,0,0,0,0.5311,0.5253,0.5388,0.5385,0.5385,0.5451,0.5452,0.5453,0.5428,0.5426,0.5424,0.5422,0.5489,0.5494,0.5498,0.5572,0,0,0.5513,0.5515,0,0,0,0,0,0,0,0,0.5307,0.5316,0.5385,0.5385,0.5386,0.5429,0.5428,0.5493,0.5429,0.5412,0.5423,0.5421,0.5473,0.5479,0.5495,0.5575,0.5578,0.5513,0.5516,0.5518,0.552,0,0,0,0,0,0,0,0.5303,0.5313,0.5413,0.5386,0.5386,0.5381,0.5387,0.544,0.5454,0.5413,0.5412,0.5419,0.5473,0.5491,0.5497,0.5579,0.5513,0.5517,0.552,0.5522,0.5722,0.5725,0,0,0,0,0,0,0.5298,0.5309,0.5411,0.5415,0.534,0.5385,0.5392,0.5418,0.5453,0.5457,0.5421,0.5418,0.5484,0.5491,0.5499,0.5588,0.5518,0.5523,0.5525,0.572,0.5723,0.5726,0,0,0,0,0,0,0.5295,0.5307,0.5409,0.5362,0.5374,0.539,0.5419,0.542,0.5438,0.5459,0.5462,0.5437,0.5482,0.5492,0.5554,0.559,0.5525,0.5529,0.5717,0.5721,0.5724,0.5767,0,0,0,0,0,0,0.5291,0.5306,0.5334,0.5363,0.5377,0.5462,0.5421,0.5423,0.5446,0.5443,0.5475,0.5478,0.5481,0.5547,0.5559,0.5596,0.5533,0.5714,0.5719,0.5723,0.5763,0.5772,0.578,0,0,0,0,0,0.5286,0.5345,0.5336,0.5348,0.5412,0.5464,0.5472,0.5474,0.5449,0.5478,0.5491,0.5477,0.5584,0.5553,0.5566,0.5605,0.5712,0.5717,0.5723,0.5759,0.577,0.578,0,0,0,0,0,0,0.5322,0.5348,0.5339,0.5408,0.5434,0.546,0.5496,0.5486,0.552,0.5516,0.5516,0.5524,0.5588,0.5602,0.5568,0.5678,0.5644,0.5653,0.5667,0.5678,0.5686,0.5683,0.5537,0,0,0,0,0,0.5337,0.5377,0.5398,0.5457,0.547,0.5481,0.5504,0.5502,0.5529,0.5541,0.5558,0.5586,0.5626,0.5652,0.569,0.5763,0.5771,0.5797,0.5805,0.5812,0.582,0.5861,0.5873,0.5744,0.5744,0.5744,0,0,0.5371,0.539,0.5415,0.5465,0.5484,0.5526,0.549,0.5536,0.5567,0.5548,0.5607,0.5621,0.5652,0.572,0.5751,0.5734,0.5857,0.5819,0.5825,0.5829,0.5868,0.588,0.5891,0.5747,0.5747,0.5746,0,0,0.5453,0.5471,0.5522,0.5542,0.5572,0.5578,0.5591,0.5618,0.5626,0.5685,0.5671,0.5708,0.5776,0.5799,0.582,0.5908,0.5897,0.592,0.5966,0.6005,0.6016,0.6025,0.6058,0.6069,0.5928,0.5928,0.5928,0,0.5491,0.5552,0.555,0.5597,0.5619,0.5601,0.5654,0.5674,0.5715,0.5731,0.5711,0.5796,0.5815,0.5889,0.591,0.5927,0.5941,0.5918,0.6014,0.6023,0.6032,0.6063,0.6075,0.593,0.593,0.593,0.593,0,0.5598,0.5641,0.5679,0.5718,0.5744,0.5793,0.5799,0.5826,0.5821,0.583,0.589,0.5912,0.5954,0.5971,0.5967,0.6043,0.6032,0.6013,0.5979,0.6047,0.6076,0.6088,0.5934,0.5933,0.5933,0.5932,0,0,0.5707,0.5743,0.5757,0.5774,0.5805,0.5838,0.5886,0.5926,0.595,0.5978,0.6019,0.6076,0.6058,0.6081,0.608,0.6114,0.6184,0.6091,0.6092,0.6109,0.627,0.6286,0.6299,0.6175,0.6178,0.6179,0.6268,0,0.5793,0.5877,0.5875,0.5954,0.5994,0.5976,0.6018,0.6042,0.6051,0.6086,0.6096,0.6137,0.6109,0.6123,0.6156,0.6169,0.6217,0.6162,0.6215,0.6217,0.621,0.6315,0.6332,0.6414,0.6279,0.6281,0.6283,0,0.5905,0.5936,0.6018,0.6042,0.6059,0.6097,0.6133,0.6166,0.6192,0.6196,0.6221,0.6214,0.6263,0.6225,0.6294,0.6257,0.6278,0.6287,0.629,0.6298,0.6256,0.6326,0.644,0.6453,0.63,0.6299,0.6298,0,0.5978,0.604,0.6097,0.6112,0.6142,0.6169,0.6182,0.6206,0.623,0.6261,0.6277,0.6314,0.6334,0.6363,0.6366,0.6338,0.6436,0.6398,0.6441,0.6441,0.6465,0.6464,0.6586,0.6475,0.6475,0.6475,0.6474,0,0.6075,0.6127,0.613,0.6166,0.6223,0.622,0.6276,0.6287,0.6309,0.6346,0.6333,0.6369,0.637,0.6406,0.6409,0.6466,0.6475,0.648,0.6481,0.6482,0.6482,0.6498,0.6494,0.6478,0.6477,0.6477,0.6476,0,0.6168,0.6172,0.6233,0.6256,0.6262,0.6303,0.6323,0.6357,0.6363,0.6411,0.6422,0.6432,0.6474,0.6479,0.6529,0.653,0.6599,0.6593,0.6591,0.659,0.6634,0.6631,0.6773,0.6792,0.6667,0.6668,0.6669,0,0.6231,0.627,0.6295,0.6319,0.6334,0.6373,0.6396,0.6395,0.642,0.6452,0.6482,0.6523,0.6555,0.6624,0.6636,0.6674,0.6669,0.6716,0.6675,0.6676,0.6672,0.667,0.6675,0.6725,0.6727,0.6728,0.6729,0,0.6342,0.6342,0.6376,0.6411,0.644,0.6467,0.6493,0.6514,0.6515,0.6544,0.6587,0.6612,0.6661,0.6702,0.6739,0.6753,0.6742,0.6741,0.6753,0.6757,0.6755,0.6758,0.6615,0.6738,0.6737,0.6737,0.6736,0.6736,0.6423,0.6457,0.648,0.6519,0.6538,0.6562,0.6595,0.6604,0.664,0.668,0.6676,0.6723,0.6748,0.6795,0.6812,0.685,0.6834,0.6852,0.6857,0.6862,0.6867,0.6746,0.6856,0.6856,0.6855,0.6855,0.6855,0,0.6535,0.6549,0.6584,0.662,0.6651,0.6635,0.6662,0.6689,0.6731,0.6754,0.6786,0.6834,0.6873,0.6888,0.6926,0.6953,0.6949,0.6963,0.6963,0.6966,0.6878,0.6864,0.6966,0.6966,0.6966,0.6966,0.6966,0.6966,0.6597,0.6654,0.6656,0.6722,0.6735,0.6781,0.6798,0.682,0.6839,0.6894,0.6926,0.6934,0.6954,0.6993,0.7029,0.7032,0.7047,0.7065,0.7066,0.6983,0.6972,0.6962,0.6949,0.7068,0.7068,0.7152,0.7152,0.7153]},{"header":{"parameterUnit":"m.s-1","parameterCategory":1,"la1":30.2991,"la2":30.254,"lo1":-89.0895,"lo2":-89.0444,"dy":0.0017,"dx":0.0017,"nx":28,"ny":28,"refTime":"2024-02-11T09:00:00:Z","depth":0,"parameterNumber":3,"parameterNumberName":"V-component_of_WINDS"},"data":[0,0,0,0,0,0,0,0,0,0,0,0,0,0,0,0,0,0,0,0,0,0,0,0,0,0,0,0,0,0,0,0,0,0,0,0,0,0,0,0,0,0,0,0,0,0,0,0,0,0,0,0,0,0,0,0,0,0,4.3284,4.3286,0,4.3497,4.3499,4.3501,4.3527,4.3524,4.3522,4.352,4.374,4.3747,4.3755,0,0,0,0,0,0,0,0,0,0,0,0,0,4.2899,4.2906,4.3284,4.3287,4.3289,4.3496,4.3499,4.3502,4.3527,4.3524,4.3522,4.3519,4.3737,4.3746,4.3756,0,0,0,0,0,0,0,0,0,0,0,0,0,4.3085,4.2908,4.3283,4.3327,4.3333,4.3496,4.3499,4.3503,4.3527,4.3524,4.3521,4.3518,4.3734,4.3745,4.3757,4.3892,0,0,4.3793,4.3798,0,0,0,0,0,0,0,0,4.3074,4.3099,4.3318,4.3324,4.3331,4.3482,4.3444,4.3633,4.3528,4.3454,4.352,4.3517,4.3657,4.3674,4.3721,4.3903,4.3912,4.3794,4.3801,4.3806,4.3809,0,0,0,0,0,0,0,4.3061,4.309,4.3368,4.3321,4.3329,4.3335,4.3358,4.348,4.357,4.346,4.3462,4.3487,4.366,4.371,4.3727,4.3915,4.3793,4.3804,4.3811,4.3816,4.4217,4.4221,0,0,0,0,0,0,4.304,4.3079,4.3361,4.3374,4.3192,4.3345,4.337,4.3437,4.3569,4.3586,4.3489,4.3487,4.3692,4.3713,4.3734,4.3902,4.3806,4.3817,4.3824,4.4214,4.4218,4.4222,0,0,0,0,0,0,4.3032,4.3065,4.3353,4.3227,4.3264,4.3355,4.3429,4.3442,4.3493,4.3591,4.3607,4.3524,4.369,4.3718,4.3853,4.391,4.3822,4.3833,4.421,4.4215,4.422,4.4239,0,0,0,0,0,0,4.3021,4.3062,4.3115,4.3228,4.3271,4.3468,4.3432,4.3449,4.3513,4.3512,4.3628,4.3645,4.369,4.3835,4.3864,4.3925,4.3842,4.4205,4.4212,4.4219,4.4233,4.4244,4.4253,0,0,0,0,0,4.3007,4.3112,4.3117,4.3151,4.3339,4.3471,4.3496,4.3545,4.3517,4.3571,4.3634,4.3641,4.3898,4.3849,4.3882,4.3947,4.4202,4.421,4.4218,4.4229,4.4242,4.4253,0,0,0,0,0,0,4.3004,4.3128,4.3135,4.328,4.3365,4.3475,4.3545,4.3557,4.3652,4.3647,4.3704,4.373,4.3863,4.3918,4.386,4.4084,4.4047,4.4062,4.4044,4.4057,4.4067,4.4053,4.3852,0,0,0,0,0,4.302,4.3117,4.322,4.3338,4.3379,4.3454,4.3514,4.3544,4.3634,4.3671,4.3743,4.3831,4.3931,4.3997,4.4095,4.424,4.4266,4.43,4.431,4.4318,4.4332,4.4412,4.4429,4.4249,4.4249,4.4249,0,0,4.3055,4.3134,4.3192,4.3339,4.3408,4.3508,4.3485,4.3591,4.3665,4.3687,4.3819,4.3875,4.3976,4.4116,4.4182,4.4166,4.4386,4.4328,4.4334,4.4344,4.4423,4.444,4.4455,4.4255,4.4254,4.4253,0,0,4.317,4.3239,4.3345,4.3414,4.3518,4.3567,4.3592,4.37,4.3738,4.3871,4.3889,4.3977,4.4149,4.4221,4.428,4.4417,4.4428,4.4447,4.4501,4.4579,4.4593,4.4606,4.4657,4.4674,4.446,4.446,4.446,0,4.3201,4.3351,4.3398,4.3504,4.3568,4.3589,4.3697,4.3762,4.3893,4.3937,4.3916,4.4132,4.4202,4.4359,4.4392,4.4439,4.447,4.4436,4.4587,4.46,4.4613,4.4662,4.4681,4.4462,4.4461,4.4461,4.4461,0,4.3384,4.3487,4.356,4.3686,4.3757,4.3863,4.3926,4.3993,4.4015,4.4066,4.42,4.4284,4.4399,4.4437,4.4461,4.4598,4.4585,4.4575,4.454,4.4631,4.4679,4.4698,4.4464,4.4464,4.4463,4.4463,0,0,4.3508,4.3655,4.3681,4.3738,4.3853,4.3934,4.404,4.4152,4.4208,4.4296,4.4388,4.4531,4.4521,4.4588,4.4619,4.4687,4.4792,4.4669,4.4672,4.4691,4.495,4.4959,4.498,4.4798,4.4802,4.4805,4.4942,0,4.3637,4.3828,4.3872,4.4035,4.4132,4.4152,4.4244,4.4324,4.4373,4.4462,4.4515,4.4617,4.4596,4.4636,4.4704,4.4765,4.4845,4.4755,4.4885,4.4889,4.4862,4.5004,4.5015,4.5141,4.496,4.4963,4.4966,0,4.3816,4.3907,4.408,4.4181,4.4223,4.4306,4.4411,4.4495,4.4585,4.4616,4.4689,4.4712,4.4823,4.4779,4.4933,4.487,4.4925,4.4962,4.4968,4.4985,4.4935,4.5028,4.5182,4.5202,4.4995,4.4992,4.499,0,4.3891,4.4057,4.4182,4.423,4.435,4.4408,4.446,4.4548,4.4612,4.4703,4.4745,4.4847,4.4905,4.4983,4.5034,4.4997,4.5184,4.5144,4.5214,4.5213,4.5256,4.5253,4.5424,4.5285,4.5285,4.5285,4.5284,0,4.4034,4.4139,4.4218,4.4295,4.4413,4.4461,4.4577,4.463,4.4707,4.4795,4.4817,4.4899,4.4958,4.5048,4.5088,4.521,4.5235,4.5263,4.5273,4.5264,4.526,4.5303,4.5297,4.529,4.5289,4.5288,4.5287,0,4.414,4.4197,4.4334,4.4436,4.4464,4.4547,4.4634,4.4709,4.4756,4.4867,4.4896,4.4971,4.5077,4.5134,4.5268,4.5294,4.5432,4.5435,4.5401,4.5406,4.5474,4.5468,4.5681,4.5712,4.555,4.5551,4.5552,0,4.4229,4.4311,4.442,4.448,4.4534,4.463,4.4695,4.4744,4.481,4.4918,4.4981,4.5088,4.5178,4.5347,4.5414,4.5515,4.5523,4.5591,4.5539,4.5526,4.5527,4.5523,4.5532,4.5601,4.5603,4.5604,4.5605,0,4.4382,4.4405,4.4498,4.4599,4.4675,4.4758,4.4839,4.4887,4.4949,4.5022,4.5131,4.52,4.5335,4.5442,4.5549,4.5603,4.5615,4.562,4.5642,4.5635,4.5613,4.5628,4.5429,4.5616,4.5615,4.5614,4.5613,4.5613,4.4485,4.4558,4.4646,4.4748,4.4814,4.4889,4.4965,4.502,4.5112,4.5226,4.5248,4.5364,4.545,4.5594,4.5651,4.5742,4.5729,4.576,4.5769,4.5777,4.5781,4.5595,4.5761,4.5761,4.5761,4.576,4.576,0,4.4641,4.4698,4.479,4.4903,4.4983,4.4984,4.5073,4.514,4.5241,4.5321,4.5407,4.5532,4.5634,4.5707,4.5812,4.5871,4.5879,4.5897,4.5895,4.5907,4.5786,4.5757,4.5888,4.5888,4.5888,4.5888,4.5888,4.5888,4.4732,4.4856,4.4889,4.5046,4.5102,4.5215,4.5266,4.5335,4.5398,4.5536,4.5621,4.5667,4.5744,4.5854,4.5948,4.5967,4.6006,4.6024,4.6043,4.5929,4.5916,4.5903,4.5877,4.6031,4.6031,4.6158,4.6159,4.616]}]]